Regional Weather Roundup
Issued by NWS

Home | Current Version | Previous Version | Text Only | Print | Product List | Glossary Off
Versions: 1 2 3 4 5 6 7 8 9 10 11 12 13 14 15 16 17 18 19 20 21 22 23 24 25 26 27 28 29 30 31 32 33 34 35 36 37 38 39 40 41 42 43 44 45 46 47 48 49 50

000
ASUS43 KLMK 050610
RWRKY
KENTUCKY REGIONAL WEATHER ROUNDUP
NATIONAL WEATHER SERVICE LOUISVILLE KY
100 AM EST MON DEC 05 2016

NOTE "FAIR" INDICATES FEW OR NO CLOUDS BELOW 12,000 FEET
WITH NO SIGNIFICANT WEATHER AND/OR OBSTRUCTIONS TO VISIBILITY.

KYZ001>023-026-027-061>063-070>075-050700-
WESTERN AND SOUTH CENTRAL KENTUCKY

CITY           SKY/WX    TMP DP  RH WIND       PRES   REMARKS
PADUCAH        CLOUDY    42  36  79 CALM      30.06S
HENDERSON      CLOUDY    39  34  81 CALM      30.05F
OWENSBORO      CLOUDY    40  35  83 W5        30.06F
HOPKINSVILLE   CLOUDY    42  39  89 N5        30.05S
BOWLING GREEN  CLOUDY    45  39  79 NW8       30.06R
GLASGOW        CLOUDY    44  44 100 W5        30.04S
$$

KYZ024-025-028>034-038-045-046-053-050700-
NORTH CENTRAL KENTUCKY

CITY           SKY/WX    TMP DP  RH WIND       PRES   REMARKS
LOUISVILLE/SDF CLOUDY    43  37  79 W9        30.03R
LOUISVILLE/LOU CLOUDY    43  37  79 W13       30.03S
FORT KNOX      CLOUDY    40  37  87 W9        30.01S WCI  34
$$

KYZ035>037-039>044-047>052-055>060-089>105-050700-
NORTHEAST KENTUCKY

CITY           SKY/WX    TMP DP  RH WIND       PRES   REMARKS
LEXINGTON      CLOUDY    44  41  89 W9        30.00R
COVINGTON      CLOUDY    41  38  89 W15       29.97R
FRANKFORT      CLOUDY    44  40  85 W7        30.00R
$$

KYZ054-064>069-076>088-106>120-050700-
SOUTHEAST KENTUCKY

CITY           SKY/WX    TMP DP  RH WIND       PRES   REMARKS
JACKSON        CLOUDY    46  43  89 VRB3      29.99R
LONDON         CLOUDY    47  44  90 SW8       30.01R
SOMERSET       CLOUDY    45  45 100 W6        30.04R
MIDDLESBORO    CLOUDY    46  46 100 CALM      30.02S FOG
MONTICELLO     CLOUDY    47  45  93 W15       30.04F
$$





USA.gov is the U.S. government's official web portal to all federal, state and local government web resources and services.